Tracking 20241 objects as of 26-Jan-2020
HD Live streaming from Space Station
objects crossing your sky now

FENGYUN 1C DEB

Track FENGYUN 1C DEB now!
10-day predictions


NORAD ID: 29819
Int'l Code: 1999-025DM
Perigee: 752.3 km
Apogee: 1,049.8 km
Inclination: 98.8 °
Period: 102.9 minutes
Semi major axis: 7272 km
RCS: 0.055 m2 (small)
Launch date: May 10, 1999
Source: People's Republic of China (PRC)
Launch site: Taiyaun Space Center, China (TSC)

Note: This is SATELLITE DEBRIS
aabbcc
Your satellite tracking list
Your tracking list is empty




NASA's NSSDC Master Catalog

Two Line Element Set (TLE):
1 29819U 99025DM  20025.37673793 -.00000132 +00000-0 -49567-4 0  9991
2 29819 098.8255 073.6170 0204572 304.2371 118.2447 13.99961731665443
Source of the keplerian elements: AFSPC